CEB546 RPVM-RPLC

Flight info

Callsign CEB546
Flight time N/A
Altitude 36000
Route MOLOC4P MOLOC W11 MIA W16 OLIVA OLIVA3P
Aircraft A339/H-SADE1E2E3GHIJ3J5M1P2RWXY/LB2D1

Departure

Time 2026-04-28 15:42
Airport Mactan Cebu International Airport (RPVM)

Arrival

Time N/A
Airport Clark International Airport / Clark Air Base (RPLC)
Time Latitude Longitude Altitude Speed Heading
2026-04-28 15:06 10.31454 123.97887 49 ft 0 kts 315°
2026-04-28 15:30 10.31444 123.97897 49 ft 2 kts 315°
2026-04-28 15:30 10.31436 123.97905 49 ft 0 kts 315°
2026-04-28 15:30 10.31427 123.97915 49 ft 2 kts 301°
2026-04-28 15:31 10.31422 123.97929 49 ft 2 kts 282°
2026-04-28 15:31 10.31420 123.97944 49 ft 2 kts 265°
2026-04-28 15:31 10.31423 123.97959 49 ft 2 kts 248°
2026-04-28 15:31 10.31430 123.97972 49 ft 2 kts 231°
2026-04-28 15:32 10.31435 123.97977 49 ft 1 kts 225°
2026-04-28 15:32 10.31436 123.97978 49 ft 0 kts 225°
2026-04-28 15:36 10.31432 123.97975 49 ft 4 kts 225°
2026-04-28 15:37 10.31368 123.97916 49 ft 16 kts 211°
2026-04-28 15:37 10.31270 123.97948 47 ft 16 kts 139°
2026-04-28 15:37 10.31194 123.97971 45 ft 10 kts 210°
2026-04-28 15:37 10.31135 123.97922 45 ft 11 kts 220°
2026-04-28 15:38 10.31070 123.97855 45 ft 18 kts 227°
2026-04-28 15:38 10.30941 123.97724 42 ft 33 kts 225°
2026-04-28 15:38 10.30777 123.97560 37 ft 33 kts 225°
2026-04-28 15:38 10.30611 123.97394 34 ft 33 kts 225°
2026-04-28 15:39 10.30449 123.97232 32 ft 32 kts 225°
2026-04-28 15:39 10.30296 123.97074 31 ft 29 kts 229°
2026-04-28 15:39 10.30154 123.96931 31 ft 28 kts 224°
2026-04-28 15:39 10.30019 123.96798 31 ft 26 kts 225°
2026-04-28 15:40 10.29894 123.96699 31 ft 11 kts 176°
2026-04-28 15:40 10.29838 123.96751 31 ft 11 kts 131°
2026-04-28 15:40 10.29769 123.96826 30 ft 17 kts 134°
2026-04-28 15:40 10.29734 123.96881 30 ft 6 kts 94°
2026-04-28 15:41 10.29756 123.96933 30 ft 9 kts 53°
2026-04-28 15:41 10.29837 123.97017 30 ft 42 kts 44°
2026-04-28 15:41 10.30250 123.97426 33 ft 121 kts 46°
2026-04-28 15:41 10.31005 123.98195 105 ft 181 kts 45°
2026-04-28 15:42 10.31927 123.99134 772 ft 194 kts 45°
2026-04-28 15:42 10.32857 124.00077 1886 ft 186 kts 45°
2026-04-28 15:42 10.33773 124.00985 2730 ft 194 kts 39°
2026-04-28 15:42 10.35049 124.01457 3384 ft 204 kts 356°
2026-04-28 15:43 10.36430 124.01089 4162 ft 207 kts 341°
2026-04-28 15:43 10.37790 124.00604 4890 ft 210 kts 341°
2026-04-28 15:43 10.39226 124.00109 5315 ft 227 kts 342°
2026-04-28 15:43 10.40802 123.99600 5748 ft 245 kts 342°
2026-04-28 15:44 10.42492 123.99081 6195 ft 263 kts 343°
2026-04-28 15:44 10.44283 123.98545 6775 ft 276 kts 343°
2026-04-28 15:44 10.46144 123.97998 7578 ft 279 kts 343°
2026-04-28 15:44 10.48022 123.97449 8398 ft 282 kts 344°
2026-04-28 15:45 10.49914 123.96896 9194 ft 285 kts 344°
2026-04-28 15:45 10.51828 123.96339 9979 ft 289 kts 344°
2026-04-28 15:45 10.53772 123.95773 10662 ft 296 kts 344°
2026-04-28 15:45 10.55816 123.95178 11129 ft 311 kts 344°
2026-04-28 15:46 10.57914 123.94567 11830 ft 317 kts 344°
2026-04-28 15:46 10.60066 123.93941 12631 ft 320 kts 344°
2026-04-28 15:46 10.62229 123.93312 13408 ft 323 kts 344°
2026-04-28 15:46 10.64356 123.92509 14147 ft 327 kts 332°
2026-04-28 15:47 10.66242 123.91162 14743 ft 330 kts 316°
2026-04-28 15:47 10.67817 123.89433 15044 ft 332 kts 310°
2026-04-28 15:47 10.69294 123.87659 15069 ft 332 kts 310°
2026-04-28 15:47 10.70780 123.85859 15071 ft 331 kts 310°
2026-04-28 15:48 10.72288 123.84045 15072 ft 331 kts 310°
2026-04-28 15:48 10.73779 123.82267 15072 ft 331 kts 310°
2026-04-28 15:48 10.75278 123.80489 15072 ft 331 kts 310°
2026-04-28 15:48 10.76774 123.78718 15072 ft 331 kts 310°
2026-04-28 15:49 10.78288 123.76929 15072 ft 331 kts 310°
2026-04-28 15:49 10.79794 123.75150 15072 ft 331 kts 310°
2026-04-28 15:49 10.81313 123.73357 15192 ft 331 kts 310°
2026-04-28 15:49 10.82813 123.71587 15739 ft 334 kts 310°
2026-04-28 15:50 10.84361 123.69760 16325 ft 338 kts 310°
2026-04-28 15:50 10.85888 123.67955 16899 ft 341 kts 310°
2026-04-28 15:50 10.87459 123.66098 17484 ft 344 kts 310°
2026-04-28 15:50 10.89036 123.64233 18065 ft 347 kts 310°
2026-04-28 15:51 10.90619 123.62360 18711 ft 350 kts 310°
2026-04-28 15:51 10.92217 123.60469 19443 ft 352 kts 310°
2026-04-28 15:51 10.93814 123.58578 20170 ft 354 kts 310°
2026-04-28 15:51 10.95419 123.56677 20897 ft 355 kts 310°
2026-04-28 15:52 10.97045 123.54779 21625 ft 355 kts 314°
2026-04-28 15:52 10.99000 123.53258 22348 ft 354 kts 329°
2026-04-28 15:52 11.00987 123.51788 23061 ft 352 kts 311°
2026-04-28 15:52 11.02185 123.49686 23776 ft 349 kts 285°
2026-04-28 15:53 11.02321 123.47231 24515 ft 345 kts 259°
2026-04-28 15:53 11.01963 123.44866 25269 ft 338 kts 271°
2026-04-28 15:53 11.02225 123.42506 25919 ft 336 kts 284°
2026-04-28 15:53 11.03077 123.40330 26635 ft 329 kts 297°
2026-04-28 15:54 11.04260 123.38381 27371 ft 322 kts 311°
2026-04-28 15:54 11.05944 123.36956 28087 ft 313 kts 327°
2026-04-28 15:54 11.07810 123.35753 28529 ft 315 kts 328°
2026-04-28 15:54 11.09678 123.34568 28932 ft 317 kts 328°
2026-04-28 15:55 11.11491 123.33401 29310 ft 319 kts 327°
2026-04-28 15:55 11.13380 123.32168 29693 ft 322 kts 327°
2026-04-28 15:55 11.15259 123.30929 30064 ft 324 kts 327°
2026-04-28 15:55 11.17170 123.29661 30431 ft 326 kts 327°
2026-04-28 15:56 11.19062 123.28400 30786 ft 329 kts 326°
2026-04-28 15:56 11.20973 123.27123 31134 ft 331 kts 326°
2026-04-28 15:56 11.22923 123.25819 31481 ft 333 kts 326°
2026-04-28 15:56 11.24863 123.24519 31818 ft 335 kts 326°
2026-04-28 15:57 11.26820 123.23207 32149 ft 337 kts 326°
2026-04-28 15:57 11.28795 123.21883 32475 ft 340 kts 326°
2026-04-28 15:57 11.30779 123.20551 32794 ft 342 kts 326°
2026-04-28 15:57 11.32764 123.19220 33105 ft 344 kts 326°
2026-04-28 15:58 11.34764 123.17877 33411 ft 346 kts 326°
2026-04-28 15:58 11.36780 123.16524 33711 ft 348 kts 326°
2026-04-28 15:58 11.38792 123.15173 34211 ft 343 kts 326°
2026-04-28 15:58 11.40779 123.13838 34526 ft 344 kts 326°
2026-04-28 15:59 11.42785 123.12491 34776 ft 347 kts 326°
2026-04-28 15:59 11.44820 123.11124 34974 ft 351 kts 326°
2026-04-28 15:59 11.49024 123.08299 34997 ft 372 kts 326°
2026-04-28 16:00 11.53473 123.05309 34999 ft 392 kts 326°
2026-04-28 16:00 11.58156 123.02161 34999 ft 412 kts 326°
2026-04-28 16:01 11.63069 122.98858 34997 ft 432 kts 326°
2026-04-28 16:01 11.68179 122.95419 34994 ft 444 kts 326°
2026-04-28 16:02 11.73362 122.91930 34995 ft 445 kts 326°
2026-04-28 16:02 11.78532 122.88448 34995 ft 445 kts 326°
2026-04-28 16:03 11.83716 122.84952 35015 ft 447 kts 326°
2026-04-28 16:03 11.86329 122.83191 35290 ft 449 kts 326°
2026-04-28 16:03 11.88920 122.81444 35715 ft 447 kts 326°
2026-04-28 16:04 11.91520 122.79690 35980 ft 448 kts 326°
2026-04-28 16:04 11.94111 122.77942 35990 ft 449 kts 326°
2026-04-28 16:04 11.99315 122.74428 35994 ft 448 kts 326°
2026-04-28 16:05 12.04546 122.70895 35995 ft 448 kts 326°
2026-04-28 16:05 12.09727 122.67396 35995 ft 448 kts 326°
2026-04-28 16:06 12.14931 122.63878 35995 ft 448 kts 326°
2026-04-28 16:06 12.20158 122.60342 35995 ft 448 kts 326°
2026-04-28 16:07 12.25333 122.56840 35995 ft 448 kts 326°
2026-04-28 16:08 12.33132 122.51560 35995 ft 448 kts 326°
2026-04-28 16:08 12.38337 122.48034 35994 ft 448 kts 326°
2026-04-28 16:09 12.46117 122.42760 35994 ft 448 kts 326°
2026-04-28 16:10 12.53927 122.37463 35994 ft 448 kts 326°
2026-04-28 16:10 12.61710 122.32179 35994 ft 448 kts 326°
2026-04-28 16:11 12.72093 122.25124 35994 ft 448 kts 326°
2026-04-28 16:12 12.79880 122.19829 35995 ft 448 kts 326°
2026-04-28 16:13 12.87674 122.14524 35995 ft 448 kts 326°
2026-04-28 16:14 12.98090 122.07430 35995 ft 448 kts 326°
2026-04-28 16:15 13.08472 122.00351 35994 ft 448 kts 326°
2026-04-28 16:15 13.13645 121.96821 35994 ft 448 kts 326°
2026-04-28 16:16 13.21373 121.91563 36419 ft 441 kts 327°
2026-04-28 16:17 13.26507 121.88058 36130 ft 447 kts 326°
2026-04-28 16:17 13.29096 121.86281 36044 ft 447 kts 326°
2026-04-28 16:17 13.34285 121.82723 36003 ft 447 kts 326°
2026-04-28 16:18 13.39472 121.79171 35996 ft 447 kts 326°
2026-04-28 16:18 13.44654 121.75623 35995 ft 447 kts 326°
2026-04-28 16:19 13.49834 121.72075 35995 ft 446 kts 326°
2026-04-28 16:19 13.55026 121.68516 35994 ft 446 kts 326°
2026-04-28 16:20 13.60185 121.64980 35994 ft 446 kts 326°
2026-04-28 16:20 13.65362 121.61428 35994 ft 446 kts 326°
2026-04-28 16:21 13.70533 121.57880 35994 ft 446 kts 326°
2026-04-28 16:21 13.75724 121.54314 35994 ft 446 kts 326°
2026-04-28 16:22 13.80860 121.50786 35994 ft 446 kts 326°
2026-04-28 16:22 13.86037 121.47227 35994 ft 446 kts 326°
2026-04-28 16:23 13.91193 121.43680 35994 ft 446 kts 326°
2026-04-28 16:23 13.96385 121.40106 35994 ft 446 kts 326°
2026-04-28 16:24 14.01522 121.36569 35994 ft 446 kts 326°
2026-04-28 16:24 14.06694 121.33006 35994 ft 446 kts 326°
2026-04-28 16:25 14.11858 121.29446 35994 ft 446 kts 326°
2026-04-28 16:25 14.17020 121.25885 35994 ft 446 kts 326°
2026-04-28 16:26 14.22191 121.22316 35994 ft 446 kts 326°
2026-04-28 16:26 14.27359 121.18747 35994 ft 446 kts 326°
2026-04-28 16:27 14.32497 121.15196 35994 ft 446 kts 326°
2026-04-28 16:28 14.40274 121.09819 35995 ft 446 kts 326°
2026-04-28 16:28 14.45452 121.06236 35995 ft 446 kts 326°
2026-04-28 16:29 14.53199 121.00871 35833 ft 441 kts 326°
2026-04-28 16:29 14.58250 120.97370 34230 ft 436 kts 326°
2026-04-28 16:30 14.60772 120.95621 33111 ft 436 kts 326°
2026-04-28 16:30 14.63278 120.93881 32042 ft 434 kts 326°
2026-04-28 16:30 14.65761 120.92156 31220 ft 426 kts 326°
2026-04-28 16:30 14.68206 120.90459 30389 ft 419 kts 326°
2026-04-28 16:31 14.70598 120.88799 29535 ft 413 kts 326°
2026-04-28 16:31 14.72979 120.87163 28559 ft 411 kts 326°
2026-04-28 16:31 14.75353 120.85557 27563 ft 408 kts 327°
2026-04-28 16:31 14.77735 120.83947 26557 ft 405 kts 327°
2026-04-28 16:32 14.80066 120.82368 25564 ft 403 kts 327°
2026-04-28 16:32 14.84742 120.79195 23263 ft 403 kts 326°
2026-04-28 16:32 14.87050 120.77626 22028 ft 404 kts 326°
2026-04-28 16:33 14.89409 120.76022 20767 ft 404 kts 326°
2026-04-28 16:33 14.90973 120.74960 19930 ft 403 kts 326°
2026-04-28 16:33 14.94091 120.72872 18270 ft 400 kts 331°
2026-04-28 16:33 14.96653 120.71930 17212 ft 392 kts 351°
2026-04-28 16:34 14.99306 120.71584 16208 ft 384 kts 353°
2026-04-28 16:34 15.01958 120.71262 15174 ft 378 kts 353°
2026-04-28 16:34 15.04549 120.70934 14146 ft 372 kts 353°
2026-04-28 16:34 15.07083 120.70601 13124 ft 366 kts 353°
2026-04-28 16:35 15.09433 120.70287 12163 ft 361 kts 353°